• In Uzbekistan
  • List of Countries
  • For 7 days
  • Water Temperature
  • Satellite Maps
  • Weather Map
  • Weather Widgets
  • user-avatar
    Login

    Hourly Weather San Luis

    Today, 11 December, Monday

    Time Temperature Precipitation Wind Pressure Humidity
    00:00 +23°C° 0 mm 6 mps 700 mmHg 42%
    01:00 +22°C° 0 mm 6 mps 700 mmHg 43%
    02:00 +21°C° 0 mm 6 mps 700 mmHg 44%
    03:00 +21°C° 0 mm 5 mps 700 mmHg 45%
    04:00 +20°C° 0 mm 5 mps 700 mmHg 46%
    05:00 +19°C° 0 mm 5 mps 700 mmHg 47%
    06:00 +21°C° 0 mm 5 mps 700 mmHg 42%
    07:00 +23°C° 0 mm 5 mps 700 mmHg 37%
    08:00 +25°C° 0 mm 5 mps 701 mmHg 32%
    09:00 +27°C° 0 mm 5 mps 701 mmHg 28%
    10:00 +29°C° 0 mm 5 mps 700 mmHg 25%
    11:00 +32°C° 0 mm 4 mps 700 mmHg 22%
    12:00 +33°C° 0 mm 4 mps 699 mmHg 21%
    13:00 +34°C° 0 mm 4 mps 699 mmHg 20%
    14:00 +35°C° 0 mm 3 mps 698 mmHg 19%
    15:00 +35°C° 0 mm 3 mps 697 mmHg 19%
    16:00 +35°C° 0 mm 4 mps 697 mmHg 19%
    17:00 +36°C° 0 mm 4 mps 696 mmHg 19%
    18:00 +34°C° 0 mm 4 mps 695 mmHg 22%
    19:00 +32°C° 0 mm 5 mps 695 mmHg 25%
    20:00 +29°C° 0 mm 5 mps 695 mmHg 27%
    21:00 +29°C° 0 mm 6 mps 695 mmHg 29%
    22:00 +28°C° 0 mm 7 mps 696 mmHg 31%
    23:00 +27°C° 0 mm 7 mps 696 mmHg 33%

    Tomorrow, 12 December, Tuesday

    Time Temperature Precipitation Wind Pressure Humidity
    00:00 +27°C° 0 mm 8 mps 696 mmHg 34%
    01:00 +27°C° 0 mm 9 mps 695 mmHg 34%
    02:00 +26°C° 0 mm 9 mps 695 mmHg 34%
    03:00 +26°C° 0 mm 9 mps 695 mmHg 33%
    04:00 +26°C° 0 mm 9 mps 695 mmHg 31%
    05:00 +24°C° 0 mm 8 mps 695 mmHg 29%
    06:00 +27°C° 0 mm 9 mps 695 mmHg 26%
    07:00 +28°C° 0 mm 9 mps 696 mmHg 24%
    08:00 +31°C° 0 mm 10 mps 696 mmHg 21%
    09:00 +32°C° 0 mm 9 mps 696 mmHg 20%
    10:00 +34°C° 0 mm 8 mps 697 mmHg 20%
    11:00 +35°C° 0 mm 8 mps 697 mmHg 19%
    12:00 +36°C° 0 mm 7 mps 696 mmHg 18%
    13:00 +38°C° 0 mm 6 mps 696 mmHg 18%
    14:00 +38°C° 0 mm 6 mps 695 mmHg 17%
    15:00 +38°C° 0 mm 6 mps 695 mmHg 17%
    16:00 +37°C° 0 mm 5 mps 694 mmHg 17%
    17:00 +37°C° 0 mm 5 mps 693 mmHg 18%
    18:00 +35°C° 0 mm 5 mps 693 mmHg 20%
    19:00 +33°C° 0 mm 5 mps 693 mmHg 23%
    20:00 +30°C° 0 mm 4 mps 693 mmHg 26%
    21:00 +30°C° 0 mm 5 mps 694 mmHg 28%
    22:00 +29°C° 0 mm 5 mps 695 mmHg 30%
    23:00 +28°C° 0 mm 5 mps 695 mmHg 32%

    Day after tomorrow, 13 December, Wednesday

    Time Temperature Precipitation Wind Pressure Humidity
    00:00 +27°C° 0 mm 6 mps 695 mmHg 39%
    01:00 +24°C° 0 mm 6 mps 695 mmHg 46%
    02:00 +22°C° 0 mm 6 mps 694 mmHg 53%
    03:00 +22°C° 0 mm 5 mps 695 mmHg 56%
    04:00 +21°C° 0 mm 4 mps 695 mmHg 59%
    05:00 +21°C° 0 mm 4 mps 695 mmHg 62%
    06:00 +22°C° 0 mm 5 mps 696 mmHg 60%
    07:00 +23°C° 0 mm 5 mps 697 mmHg 58%
    08:00 +24°C° 0 mm 6 mps 697 mmHg 55%
    09:00 +26°C° 0 mm 6 mps 698 mmHg 50%
    10:00 +28°C° 0 mm 5 mps 698 mmHg 44%
    11:00 +30°C° 0 mm 4 mps 698 mmHg 39%
    12:00 +32°C° 0 mm 5 mps 698 mmHg 36%
    13:00 +33°C° 0 mm 5 mps 698 mmHg 33%
    14:00 +34°C° 0 mm 5 mps 698 mmHg 31%
    15:00 +34°C° 0.1 mm 6 mps 697 mmHg 30%
    16:00 +34°C° 0.1 mm 6 mps 697 mmHg 29%
    17:00 +34°C° 0.1 mm 7 mps 697 mmHg 28%
    18:00 +32°C° 0 mm 6 mps 697 mmHg 30%
    19:00 +30°C° 0 mm 6 mps 697 mmHg 33%
    20:00 +28°C° 0 mm 5 mps 698 mmHg 36%
    21:00 +27°C° 0 mm 5 mps 698 mmHg 39%
    22:00 +26°C° 0 mm 4 mps 698 mmHg 42%
    23:00 +25°C° 0 mm 4 mps 699 mmHg 45%

    14 December, Thursday

    Time Temperature Precipitation Wind Pressure Humidity
    00:00 +25°C° 0 mm 3 mps 698 mmHg 47%
    01:00 +24°C° 0 mm 3 mps 698 mmHg 49%
    02:00 +24°C° 0 mm 3 mps 698 mmHg 51%
    03:00 +24°C° 0 mm 3 mps 698 mmHg 49%
    04:00 +23°C° 0 mm 4 mps 698 mmHg 48%
    05:00 +22°C° 0 mm 4 mps 698 mmHg 46%
    06:00 +26°C° 0 mm 4 mps 699 mmHg 39%
    07:00 +28°C° 0 mm 5 mps 700 mmHg 32%
    08:00 +30°C° 0 mm 5 mps 701 mmHg 25%
    09:00 +32°C° 0 mm 4 mps 701 mmHg 23%
    10:00 +33°C° 0 mm 4 mps 701 mmHg 21%
    11:00 +34°C° 0 mm 3 mps 701 mmHg 19%
    12:00 +35°C° 0 mm 3 mps 700 mmHg 18%
    13:00 +36°C° 0 mm 2 mps 699 mmHg 17%
    14:00 +37°C° 0 mm 2 mps 699 mmHg 16%
    15:00 +37°C° 0 mm 2 mps 698 mmHg 15%
    16:00 +38°C° 0 mm 2 mps 698 mmHg 15%
    17:00 +38°C° 0 mm 2 mps 697 mmHg 14%
    18:00 +36°C° 0 mm 3 mps 697 mmHg 18%
    19:00 +34°C° 0 mm 4 mps 697 mmHg 21%
    20:00 +32°C° 0 mm 4 mps 697 mmHg 24%
    21:00 +30°C° 0 mm 5 mps 698 mmHg 26%
    22:00 +29°C° 0 mm 6 mps 698 mmHg 28%
    23:00 +28°C° 0 mm 7 mps 699 mmHg 31%

    15 December, Friday

    Time Temperature Precipitation Wind Pressure Humidity
    00:00 +27°C° 0 mm 6 mps 698 mmHg 32%
    01:00 +27°C° 0 mm 6 mps 698 mmHg 33%
    02:00 +26°C° 0 mm 6 mps 698 mmHg 34%
    03:00 +26°C° 0 mm 6 mps 698 mmHg 34%
    04:00 +26°C° 0 mm 6 mps 698 mmHg 33%
    05:00 +26°C° 0 mm 6 mps 698 mmHg 33%
    06:00 +28°C° 0 mm 6 mps 698 mmHg 31%
    07:00 +30°C° 0 mm 6 mps 699 mmHg 30%
    08:00 +33°C° 0 mm 6 mps 699 mmHg 29%
    09:00 +35°C° 0 mm 6 mps 699 mmHg 27%
    10:00 +36°C° 0 mm 7 mps 699 mmHg 25%
    11:00 +39°C° 0 mm 7 mps 698 mmHg 23%
    12:00 +40°C° 0 mm 7 mps 697 mmHg 22%
    13:00 +40°C° 0 mm 7 mps 696 mmHg 20%
    14:00 +41°C° 0 mm 7 mps 695 mmHg 19%
    15:00 +41°C° 0 mm 6 mps 695 mmHg 18%
    16:00 +41°C° 0 mm 6 mps 694 mmHg 18%
    17:00 +41°C° 0 mm 5 mps 693 mmHg 18%
    18:00 +38°C° 0 mm 4 mps 693 mmHg 21%
    19:00 +36°C° 0 mm 4 mps 693 mmHg 24%
    20:00 +34°C° 0 mm 3 mps 692 mmHg 27%
    21:00 +34°C° 0 mm 4 mps 692 mmHg 29%
    22:00 +33°C° 0 mm 5 mps 692 mmHg 31%
    23:00 +32°C° 0 mm 6 mps 692 mmHg 33%

    16 December, Saturday

    Time Temperature Precipitation Wind Pressure Humidity
    00:00 +32°C° 0 mm 6 mps 692 mmHg 35%
    01:00 +32°C° 0 mm 7 mps 691 mmHg 36%
    02:00 +32°C° 0 mm 7 mps 690 mmHg 38%
    03:00 +32°C° 0 mm 8 mps 690 mmHg 38%
    04:00 +32°C° 0 mm 8 mps 690 mmHg 38%
    05:00 +32°C° 0 mm 8 mps 690 mmHg 38%
    06:00 +33°C° 0 mm 9 mps 690 mmHg 36%
    07:00 +34°C° 0 mm 10 mps 691 mmHg 34%
    08:00 +37°C° 0 mm 11 mps 691 mmHg 31%
    09:00 +38°C° 0 mm 11 mps 691 mmHg 28%
    10:00 +41°C° 0 mm 11 mps 691 mmHg 25%
    11:00 +42°C° 0 mm 10 mps 691 mmHg 22%
    12:00 +43°C° 0 mm 9 mps 691 mmHg 21%
    13:00 +44°C° 0 mm 7 mps 691 mmHg 19%
    14:00 +45°C° 0 mm 5 mps 691 mmHg 17%
    15:00 +44°C° 0 mm 6 mps 691 mmHg 18%
    16:00 +44°C° 0 mm 6 mps 691 mmHg 19%
    17:00 +42°C° 0 mm 6 mps 691 mmHg 20%
    18:00 +39°C° 0.3 mm 7 mps 691 mmHg 23%
    19:00 +35°C° 0.3 mm 7 mps 692 mmHg 25%
    20:00 +33°C° 0.3 mm 8 mps 693 mmHg 27%
    21:00 +29°C° 0 mm 10 mps 694 mmHg 24%
    22:00 +27°C° 0 mm 11 mps 696 mmHg 21%
    23:00 +24°C° 0 mm 13 mps 698 mmHg 18%
    Show more